Location: Isles
(48.9125°N, 2.8272°E)
Time: 15:19:01
(UTC+00:00)

USA 215 - Pass Details

Date: 03 February 2023
Orbit: 1102 x 1105 km, 123.0° (Epoch: 27 March)

Event Time Altitude Azimuth Distance (km) Brightness Sun altitude
Rises 18:15:12 0° 149° (SSE) 3,907 5.9 -14.4°
Reaches altitude 10° 18:17:50 10° 156° (SSE) 2,952 5.4 -14.8°
Maximum altitude 18:23:58 43° 226° (SW) 1,504 4.4 -15.8°
Drops below altitude 10° 18:30:09 10° 297° (WNW) 2,966 6.4 -16.8°
Sets 18:32:48 0° 304° (NW) 3,927 7.0 -17.2°
